Rochester, NY

10:15 AM EDT on September 18, 2019 (GMT -0400)
Greater Rochester International

Weather History for KROC - July, 2019

Change the Weather History Date:

Monday, July 15, 2019

  Actual Average Record
Temperature  
Mean Temperature 71 °F 71 °F  
Max Temperature 82 °F 81 °F 96 °F (1983)
Min Temperature 59 °F 61 °F 48 °F (1884)
Degree Days  
Heating Degree Days 0 0  
Month to date heating degree days 0 6  
Since 1 June heating degree days 48 74  
Since 1 July heating degree days 0 6  
Cooling Degree Days 6 6  
Month to date cooling degree days 122 90  
Year to date cooling degree days 215 226  
Since 1 June cooling degree days 205 196  
Growing Degree Days 20 (Base 50)    
Moisture  
Dew Point 58 °F    
Average Humidity 69    
Maximum Humidity 97    
Minimum Humidity 40    
Precipitation  
Precipitation 0.00 in 0.10 in 2.36 in (2000)
Month to date precipitation 1.98 1.57  
Year to date precipitation 18.45 17.37  
Snow  
Snow 0.00 in 0.00 in 0.00 in ()
Month to date snowfall 0.0 0.0  
Since 1 June snowfall 0.0 0.0  
Since 1 July snowfall 0.0 0.0  
Snow Depth 0.00 in    
Sea Level Pressure  
Sea Level Pressure 30.09 in    
Wind  
Wind Speed 4 mph (WNW)    
Max Wind Speed 12 mph    
Max Gust Speed 15 mph    
Visibility 10 miles    
Events Fog    
T = Trace of Precipitation, MM = Missing Value Source: NWS Daily Summary

Daily Weather History Graph

Daily Weather History Graph

Search for Another Location

Airport or City:

Astronomy

Jul. 15, 2019 Rise Set
Actual Time 5:44 AM EDT 8:48 PM EDT
Civil Twilight 5:10 AM EDT 9:22 PM EDT
Nautical Twilight 4:26 AM EDT 10:06 PM EDT
Astronomical Twilight 3:34 AM EDT 10:57 PM EDT
Moon 8:04 PM EDT (7/15) 4:29 AM EDT (7/15)
Length of Visible Light 16h 12m
Length of Day
15h 03m
Waxing Gibbous, 98% of the Moon is Illuminated
Jul 15
Waxing Gibbous
Jul 16
Full
Jul 24
Last Quarter
Jul 31
New
Aug 7
First Quarter

Hourly Weather History & Observations

Time (EDT) Temp. Heat Index Dew Point Humidity Pressure Visibility Wind Dir Wind Speed Gust Speed Precip Events Conditions
12:54 AM 64.0 °F - 57.0 °F 78% 30.09 in 10.0 mi West 4.6 mph - N/A   Mostly Cloudy
1:54 AM 62.1 °F - 57.0 °F 84% 30.09 in 10.0 mi WSW 3.5 mph - N/A   Scattered Clouds
2:54 AM 61.0 °F - 57.9 °F 90% 30.09 in 10.0 mi Calm Calm - N/A   Scattered Clouds
3:54 AM 59.0 °F - 57.0 °F 93% 30.10 in 10.0 mi WSW 5.8 mph - N/A   Partly Cloudy
4:54 AM 59.0 °F - 55.9 °F 90% 30.10 in 10.0 mi WSW 5.8 mph - N/A   Partly Cloudy
5:54 AM 60.1 °F - 57.0 °F 90% 30.10 in 7.0 mi SW 5.8 mph - N/A Fog Patches of Fog
6:54 AM 61.0 °F - 59.0 °F 93% 30.12 in 6.0 mi West 4.6 mph - N/A   Mostly Cloudy
7:54 AM 64.9 °F - 61.0 °F 87% 30.12 in 10.0 mi SW 5.8 mph - N/A   Mostly Cloudy
8:54 AM 69.1 °F - 62.1 °F 78% 30.13 in 10.0 mi West 4.6 mph - N/A   Scattered Clouds
9:54 AM 72.0 °F - 61.0 °F 68% 30.14 in 10.0 mi Calm Calm - N/A   Scattered Clouds
10:54 AM 75.0 °F - 57.9 °F 55% 30.14 in 10.0 mi Variable 3.5 mph - N/A   Scattered Clouds
11:54 AM 75.0 °F - 57.9 °F 55% 30.14 in 10.0 mi Calm Calm - N/A   Scattered Clouds
12:54 PM 79.0 °F - 55.0 °F 44% 30.12 in 10.0 mi NE 3.5 mph - N/A   Scattered Clouds
1:54 PM 80.1 °F 80.2 °F 55.9 °F 43% 30.11 in 10.0 mi West 6.9 mph - N/A   Scattered Clouds
2:54 PM 82.0 °F 81.6 °F 55.9 °F 41% 30.09 in 10.0 mi NNW 4.6 mph - N/A   Scattered Clouds
3:54 PM 81.0 °F 81.6 °F 60.1 °F 49% 30.08 in 10.0 mi ENE 4.6 mph - N/A   Scattered Clouds
4:54 PM 81.0 °F 81.6 °F 60.1 °F 49% 30.07 in 10.0 mi NNE 9.2 mph - N/A   Mostly Cloudy
5:54 PM 79.0 °F - 59.0 °F 50% 30.06 in 10.0 mi NE 8.1 mph - N/A   Mostly Cloudy
6:54 PM 77.0 °F - 59.0 °F 54% 30.05 in 10.0 mi ENE 6.9 mph - N/A   Mostly Cloudy
7:54 PM 75.0 °F - 57.9 °F 55% 30.06 in 10.0 mi NE 4.6 mph - N/A   Mostly Cloudy
8:54 PM 73.0 °F - 57.9 °F 59% 30.06 in 10.0 mi NE 4.6 mph - N/A   Mostly Cloudy
9:54 PM 71.1 °F - 59.0 °F 66% 30.06 in 10.0 mi Calm Calm - N/A   Scattered Clouds
10:54 PM 69.1 °F - 59.0 °F 70% 30.05 in 10.0 mi Calm Calm - N/A   Mostly Cloudy
11:54 PM 68.0 °F - 61.0 °F 78% 30.06 in 10.0 mi Calm Calm - N/A   Mostly Cloudy